User: anonymous   Login
Location: Unspecified
(0.0000°N, 0.0000°E)
Time: 19:01:48
(UTC+00:00)
Language:

SO-50 - Orbit

View from above orbital plane
View from above orbital plane
View from above satellite
View from above satellite

Ground track
Ground track

The orbit data is extracted from the following two-line orbital elements,

1 27607U 02058C   19342.91238907 -.00000055 +00000-0 +13050-4 0  9999
2 27607 064.5550 239.9901 0070297 222.4274 137.1382 14.75593800912469
Epoch (UTC): 08 December 2019 21:53:50
Eccentricity: 0.0070297
inclination: 64.5550°
perigee height: 594 km
apogee height: 692 km
right ascension of ascending node: 239.9901°
argument of perigee: 222.4274°
revolutions per day: 14.75593800
mean anomaly at epoch: 137.1382°
orbit number at epoch: 91246

The dashed part of the orbit path shows where the satellite is in the earth's shadow,  

DLR